User: anonymous   Login
Location: Damada
(14.7329°N, 3.1761°W)
Time: 07:26:55
(UTC+00:00)
Language:

ADEOS Rocket - Orbit

View from above orbital plane
View from above orbital plane
View from above satellite
View from above satellite

Ground track
Ground track

The orbit data is extracted from the following two-line orbital elements,

1 24279U 96046C   20157.16356941  .00000019  00000-0  66451-4 0  9995
2 24279  98.6932 340.3744 0300722  44.8731  60.6132 13.47144149170193
Epoch (UTC): 05 June 2020 03:55:32
Eccentricity: 0.0300722
inclination: 98.6932°
perigee height: 858 km
apogee height: 1307 km
right ascension of ascending node: 340.3744°
argument of perigee: 44.8731°
revolutions per day: 13.47144149
mean anomaly at epoch: 60.6132°
orbit number at epoch: 17019

The dashed part of the orbit path shows where the satellite is in the earth's shadow,  

DLR